JKK3194 EGBB-LEIB

Flight info

Callsign JKK3194
Flight time 2h 15m
Altitude 35000
Route CPT2Y CPT UN859 SOPIL DCT BALAN DCT EVPOK DCT NARAK DCT GAI DCT LOMRA DCT ROCAN/N0437F310 DCT PUMAL N859 BCN Z174 CORDA CORDA3S
Aircraft MD83/M-SDFGIRWY/S

Departure

Time 2026-04-30 18:55
Airport Birmingham Airport (EGBB)

Arrival

Time 2026-04-30 21:10
Airport Ibiza Airport (LEIB)
Time Latitude Longitude Altitude Speed Heading
2026-04-30 18:23 52.45483 -1.73366 324 ft 0 kts 146°
2026-04-30 18:24 52.45479 -1.73361 324 ft 0 kts 146°
2026-04-30 18:26 52.45263 -1.73516 324 ft 0 kts 326°
2026-04-30 18:45 52.45206 -1.73453 324 ft 4 kts 277°
2026-04-30 18:45 52.45198 -1.73486 324 ft 3 kts 236°
2026-04-30 18:45 52.45193 -1.73495 324 ft 0 kts 236°
2026-04-30 18:49 52.45189 -1.73505 323 ft 5 kts 236°
2026-04-30 18:49 52.45163 -1.73569 324 ft 8 kts 236°
2026-04-30 18:50 52.45126 -1.73659 324 ft 11 kts 236°
2026-04-30 18:50 52.45117 -1.73784 324 ft 13 kts 304°
2026-04-30 18:50 52.45198 -1.73884 324 ft 16 kts 326°
2026-04-30 18:50 52.45297 -1.74002 323 ft 18 kts 307°
2026-04-30 18:51 52.45358 -1.74186 323 ft 19 kts 296°
2026-04-30 18:51 52.45415 -1.74379 324 ft 19 kts 296°
2026-04-30 18:51 52.45478 -1.74571 324 ft 19 kts 310°
2026-04-30 18:51 52.45588 -1.74701 321 ft 21 kts 326°
2026-04-30 18:52 52.45722 -1.74850 312 ft 25 kts 326°
2026-04-30 18:52 52.45876 -1.75019 309 ft 27 kts 326°
2026-04-30 18:52 52.46037 -1.75197 305 ft 28 kts 326°
2026-04-30 18:52 52.46200 -1.75381 304 ft 29 kts 324°
2026-04-30 18:53 52.46366 -1.75564 303 ft 29 kts 326°
2026-04-30 18:53 52.46528 -1.75742 307 ft 22 kts 326°
2026-04-30 18:53 52.46626 -1.75868 307 ft 14 kts 299°
2026-04-30 18:53 52.46605 -1.75989 305 ft 12 kts 236°
2026-04-30 18:54 52.46552 -1.76078 307 ft 8 kts 185°
2026-04-30 18:54 52.46510 -1.76049 310 ft 7 kts 146°
2026-04-30 18:54 52.46373 -1.75899 311 ft 54 kts 146°
2026-04-30 18:54 52.45879 -1.75345 318 ft 115 kts 145°
2026-04-30 18:55 52.45072 -1.74440 335 ft 165 kts 146°
2026-04-30 18:55 52.43063 -1.72325 1906 ft 165 kts 145°
2026-04-30 18:55 52.42119 -1.71455 2761 ft 162 kts 151°
2026-04-30 18:56 52.40337 -1.70154 3765 ft 180 kts 160°
2026-04-30 18:56 52.39093 -1.69401 4267 ft 193 kts 160°
2026-04-30 18:56 52.37846 -1.68591 4933 ft 198 kts 157°
2026-04-30 18:57 52.35261 -1.66583 6093 ft 216 kts 155°
2026-04-30 18:57 52.33822 -1.65540 6457 ft 237 kts 157°
2026-04-30 18:57 52.32231 -1.64476 6738 ft 257 kts 158°
2026-04-30 18:58 52.28660 -1.62199 7375 ft 291 kts 159°
2026-04-30 18:58 52.26751 -1.61017 8040 ft 294 kts 159°
2026-04-30 18:58 52.24840 -1.59834 8757 ft 295 kts 159°
2026-04-30 18:59 52.20987 -1.57296 10090 ft 302 kts 155°
2026-04-30 19:00 52.15250 -1.52667 11941 ft 310 kts 154°
2026-04-30 19:00 52.13327 -1.51107 12603 ft 310 kts 154°
2026-04-30 19:00 52.09816 -1.48299 13694 ft 314 kts 154°
2026-04-30 19:01 52.05842 -1.45182 14632 ft 322 kts 154°
2026-04-30 19:01 52.03808 -1.43603 15084 ft 326 kts 154°
2026-04-30 19:02 51.99705 -1.40424 16120 ft 328 kts 154°
2026-04-30 19:02 51.95537 -1.37198 17045 ft 335 kts 154°
2026-04-30 19:03 51.91296 -1.33924 18027 ft 340 kts 154°
2026-04-30 19:03 51.86985 -1.30601 18896 ft 346 kts 154°
2026-04-30 19:04 51.82630 -1.27253 19854 ft 348 kts 154°
2026-04-30 19:04 51.78254 -1.23914 20819 ft 349 kts 154°
2026-04-30 19:05 51.73844 -1.20545 21711 ft 353 kts 154°
2026-04-30 19:05 51.69382 -1.17132 22662 ft 356 kts 154°
2026-04-30 19:06 51.64884 -1.13696 23605 ft 360 kts 154°
2026-04-30 19:06 51.62617 -1.11966 24014 ft 362 kts 154°
2026-04-30 19:06 51.58033 -1.08476 24779 ft 367 kts 154°
2026-04-30 19:07 51.53398 -1.04955 25544 ft 371 kts 154°
2026-04-30 19:07 51.51088 -1.03203 25880 ft 374 kts 154°
2026-04-30 19:08 51.46542 -0.99762 26601 ft 378 kts 155°
2026-04-30 19:08 51.41906 -0.96284 27250 ft 384 kts 155°
2026-04-30 19:08 51.39588 -0.94550 27223 ft 395 kts 155°
2026-04-30 19:09 51.34529 -0.90756 27740 ft 403 kts 154°
2026-04-30 19:09 51.32049 -0.88892 28336 ft 399 kts 154°
2026-04-30 19:09 51.29541 -0.87008 28806 ft 399 kts 154°
2026-04-30 19:10 51.24463 -0.83200 29103 ft 405 kts 154°
2026-04-30 19:10 51.19401 -0.79417 29165 ft 399 kts 154°
2026-04-30 19:11 51.11964 -0.73879 29222 ft 390 kts 155°
2026-04-30 19:11 51.09489 -0.72039 29384 ft 393 kts 155°
2026-04-30 19:12 51.07021 -0.70210 29927 ft 390 kts 155°
2026-04-30 19:12 51.04563 -0.68387 30312 ft 390 kts 155°
2026-04-30 19:12 51.02114 -0.66573 30673 ft 388 kts 155°
2026-04-30 19:13 50.97225 -0.62957 31345 ft 387 kts 155°
2026-04-30 19:13 50.92349 -0.59359 31946 ft 386 kts 155°
2026-04-30 19:13 50.89922 -0.57571 32252 ft 385 kts 155°
2026-04-30 19:14 50.87493 -0.55782 32545 ft 385 kts 155°
2026-04-30 19:14 50.85063 -0.53995 32767 ft 386 kts 155°
2026-04-30 19:14 50.82626 -0.52205 33045 ft 385 kts 155°
2026-04-30 19:14 50.80199 -0.50422 33348 ft 384 kts 155°
2026-04-30 19:15 50.77779 -0.48645 33601 ft 384 kts 155°
2026-04-30 19:15 50.72880 -0.45057 33661 ft 395 kts 155°
2026-04-30 19:15 50.70385 -0.43231 33862 ft 395 kts 155°
2026-04-30 19:16 50.67923 -0.41430 34056 ft 397 kts 155°
2026-04-30 19:16 50.65415 -0.39597 34236 ft 398 kts 155°
2026-04-30 19:16 50.60379 -0.35924 34573 ft 400 kts 155°
2026-04-30 19:17 50.57856 -0.34085 34737 ft 400 kts 155°
2026-04-30 19:17 50.52779 -0.30431 35037 ft 403 kts 156°
2026-04-30 19:17 50.50209 -0.28630 35077 ft 407 kts 156°
2026-04-30 19:18 50.42331 -0.23061 35132 ft 421 kts 155°
2026-04-30 19:19 50.36938 -0.19190 35134 ft 431 kts 155°
2026-04-30 19:19 50.28755 -0.13276 35124 ft 418 kts 155°
2026-04-30 19:20 50.26160 -0.11403 35123 ft 405 kts 155°
2026-04-30 19:20 50.23622 -0.09582 35124 ft 398 kts 155°
2026-04-30 19:21 50.16053 -0.04197 35131 ft 408 kts 155°
2026-04-30 19:22 50.05304 0.02061 35117 ft 414 kts 166°
2026-04-30 19:22 49.96994 0.05008 35121 ft 403 kts 165°
2026-04-30 19:23 49.88722 0.08228 35123 ft 414 kts 165°
2026-04-30 19:24 49.80342 0.11570 35117 ft 414 kts 165°
2026-04-30 19:25 49.66488 0.17013 35124 ft 414 kts 165°
2026-04-30 19:26 49.55272 0.21552 35122 ft 415 kts 164°
2026-04-30 19:27 49.46920 0.24936 35125 ft 420 kts 165°
2026-04-30 19:27 49.41187 0.27234 35125 ft 431 kts 165°
2026-04-30 19:28 49.38268 0.28399 35123 ft 435 kts 165°
2026-04-30 19:29 49.26535 0.33134 35122 ft 435 kts 164°
2026-04-30 19:30 49.14874 0.38097 35121 ft 435 kts 164°
2026-04-30 19:31 49.03209 0.42994 35123 ft 435 kts 164°
2026-04-30 19:31 48.94454 0.46640 35119 ft 434 kts 164°
2026-04-30 19:32 48.88627 0.49068 35120 ft 434 kts 164°
2026-04-30 19:32 48.82799 0.51490 35120 ft 434 kts 164°
2026-04-30 19:33 48.76968 0.53889 35123 ft 434 kts 165°
2026-04-30 19:33 48.71112 0.56172 35123 ft 435 kts 165°
2026-04-30 19:34 48.65248 0.58436 35124 ft 435 kts 165°
2026-04-30 19:35 48.56436 0.61875 35121 ft 437 kts 165°
2026-04-30 19:35 48.50554 0.64179 35120 ft 436 kts 165°
2026-04-30 19:36 48.44689 0.66558 35117 ft 437 kts 164°
2026-04-30 19:36 48.35894 0.70163 35118 ft 437 kts 164°
2026-04-30 19:37 48.30023 0.72549 35116 ft 437 kts 164°
2026-04-30 19:37 48.24151 0.74916 35117 ft 437 kts 165°
2026-04-30 19:38 48.18269 0.77228 35118 ft 436 kts 165°
2026-04-30 19:38 48.12401 0.79521 35118 ft 436 kts 165°
2026-04-30 19:39 48.06532 0.81821 35118 ft 436 kts 165°
2026-04-30 19:39 48.00647 0.84061 35120 ft 437 kts 168°
2026-04-30 19:40 47.95671 0.85326 35116 ft 436 kts 171°
2026-04-30 19:40 47.89670 0.86700 35117 ft 437 kts 170°
2026-04-30 19:41 47.83678 0.88202 35120 ft 437 kts 169°
2026-04-30 19:41 47.77694 0.89781 35130 ft 436 kts 169°
2026-04-30 19:42 47.71730 0.91364 35123 ft 435 kts 169°
2026-04-30 19:42 47.65769 0.92934 35125 ft 435 kts 169°
2026-04-30 19:43 47.59800 0.94487 35129 ft 436 kts 169°
2026-04-30 19:44 47.50849 0.96797 35133 ft 435 kts 169°
2026-04-30 19:44 47.44891 0.98335 35133 ft 435 kts 169°
2026-04-30 19:45 47.38927 0.99875 35131 ft 435 kts 169°
2026-04-30 19:45 47.32968 1.01408 35135 ft 434 kts 169°
2026-04-30 19:46 47.27030 1.02932 35135 ft 433 kts 169°
2026-04-30 19:46 47.21081 1.04455 35138 ft 434 kts 169°
2026-04-30 19:47 47.15122 1.05969 35136 ft 434 kts 169°
2026-04-30 19:47 47.09247 1.07456 35143 ft 433 kts 169°
2026-04-30 19:48 47.03306 1.08967 35141 ft 433 kts 169°
2026-04-30 19:48 46.97360 1.10477 35141 ft 433 kts 169°
2026-04-30 19:49 46.91415 1.11980 35149 ft 434 kts 169°
2026-04-30 19:49 46.82475 1.14235 35144 ft 434 kts 169°
2026-04-30 19:50 46.76521 1.15730 35143 ft 434 kts 169°
2026-04-30 19:50 46.70557 1.17217 35139 ft 435 kts 169°
2026-04-30 19:51 46.64581 1.18709 35148 ft 439 kts 169°
2026-04-30 19:51 46.58512 1.20226 35144 ft 446 kts 169°
2026-04-30 19:52 46.52377 1.21757 35142 ft 448 kts 169°
2026-04-30 19:52 46.46244 1.23277 35151 ft 446 kts 169°
2026-04-30 19:53 46.40128 1.24794 35147 ft 445 kts 169°
2026-04-30 19:53 46.34070 1.26289 35156 ft 446 kts 169°
2026-04-30 19:54 46.27914 1.27805 35154 ft 450 kts 169°
2026-04-30 19:54 46.21787 1.29306 35164 ft 449 kts 169°
2026-04-30 19:55 46.15628 1.30817 35168 ft 449 kts 170°
2026-04-30 19:55 46.09470 1.32340 35175 ft 449 kts 171°
2026-04-30 19:56 46.03311 1.33837 35170 ft 449 kts 170°
2026-04-30 19:56 45.97142 1.35336 35173 ft 449 kts 170°
2026-04-30 19:57 45.90982 1.36838 35178 ft 449 kts 171°
2026-04-30 19:57 45.84814 1.38324 35170 ft 449 kts 171°
2026-04-30 19:58 45.78701 1.39798 35175 ft 449 kts 171°
2026-04-30 19:58 45.72532 1.41297 35175 ft 451 kts 171°
2026-04-30 19:59 45.66340 1.42786 35180 ft 451 kts 172°
2026-04-30 20:00 45.57061 1.45012 35178 ft 451 kts 171°
2026-04-30 20:00 45.50870 1.46510 35181 ft 452 kts 172°
2026-04-30 20:01 45.41566 1.48707 35179 ft 452 kts 172°
2026-04-30 20:01 45.35366 1.50185 35175 ft 452 kts 172°
2026-04-30 20:02 45.26076 1.52399 35176 ft 451 kts 172°
2026-04-30 20:03 45.16784 1.54597 35168 ft 450 kts 173°
2026-04-30 20:03 45.10604 1.56065 35175 ft 451 kts 173°
2026-04-30 20:04 45.04413 1.57510 35177 ft 451 kts 173°
2026-04-30 20:05 44.95118 1.59692 35173 ft 453 kts 174°
2026-04-30 20:05 44.85771 1.61881 35176 ft 454 kts 174°
2026-04-30 20:06 44.79540 1.63333 35177 ft 453 kts 174°
2026-04-30 20:06 44.73312 1.64783 35175 ft 453 kts 174°
2026-04-30 20:07 44.67093 1.66224 35173 ft 453 kts 174°
2026-04-30 20:08 44.57757 1.68391 35170 ft 455 kts 174°
2026-04-30 20:08 44.51485 1.69847 35176 ft 458 kts 174°
2026-04-30 20:09 44.45201 1.71289 35178 ft 457 kts 174°
2026-04-30 20:09 44.35773 1.73465 35173 ft 460 kts 175°
2026-04-30 20:10 44.26324 1.75643 35176 ft 460 kts 175°
2026-04-30 20:11 44.16799 1.77704 35171 ft 460 kts 176°
2026-04-30 20:11 44.10506 1.79078 35173 ft 461 kts 175°
2026-04-30 20:12 44.01008 1.81175 35153 ft 460 kts 176°
2026-04-30 20:13 43.94621 1.82552 35168 ft 461 kts 179°
2026-04-30 20:13 43.88294 1.83238 35170 ft 458 kts 182°
2026-04-30 20:14 43.81926 1.83724 35171 ft 458 kts 182°
2026-04-30 20:14 43.75556 1.84291 35166 ft 459 kts 181°
2026-04-30 20:15 43.69180 1.84916 35167 ft 460 kts 181°
2026-04-30 20:15 43.62798 1.85552 35167 ft 459 kts 181°
2026-04-30 20:16 43.56422 1.86176 35167 ft 460 kts 181°
2026-04-30 20:16 43.50035 1.86791 35170 ft 460 kts 181°
2026-04-30 20:17 43.43652 1.87407 35165 ft 460 kts 181°
2026-04-30 20:17 43.37271 1.88017 35154 ft 460 kts 181°
2026-04-30 20:18 43.30879 1.88623 35159 ft 461 kts 181°
2026-04-30 20:18 43.24487 1.89239 35161 ft 460 kts 181°
2026-04-30 20:19 43.18098 1.89856 35154 ft 460 kts 181°
2026-04-30 20:19 43.11717 1.90465 35161 ft 459 kts 181°
2026-04-30 20:20 43.05336 1.91074 35166 ft 460 kts 181°
2026-04-30 20:20 42.98948 1.91685 35149 ft 460 kts 181°
2026-04-30 20:21 42.92607 1.92281 35162 ft 458 kts 181°
2026-04-30 20:21 42.86244 1.92885 35173 ft 459 kts 181°
2026-04-30 20:22 42.79873 1.93486 35169 ft 458 kts 181°
2026-04-30 20:22 42.73505 1.94087 35168 ft 459 kts 181°
2026-04-30 20:23 42.67132 1.94698 35169 ft 459 kts 179°
2026-04-30 20:23 42.61846 1.95614 35176 ft 462 kts 176°
2026-04-30 20:24 42.55487 1.97020 35175 ft 463 kts 175°
2026-04-30 20:24 42.49136 1.98375 35175 ft 462 kts 176°
2026-04-30 20:25 42.39604 2.00291 35178 ft 462 kts 176°
2026-04-30 20:26 42.30061 2.01632 35169 ft 458 kts 181°
2026-04-30 20:26 42.20522 2.02373 35173 ft 458 kts 181°
2026-04-30 20:27 42.07838 2.03557 35162 ft 456 kts 180°
2026-04-30 20:28 41.95167 2.04770 35146 ft 456 kts 180°
2026-04-30 20:30 41.79432 2.06247 35133 ft 453 kts 180°
2026-04-30 20:31 41.60640 2.07999 35116 ft 452 kts 180°
2026-04-30 20:32 41.44976 2.09457 35125 ft 451 kts 180°
2026-04-30 20:33 41.35585 2.10331 35125 ft 451 kts 180°
2026-04-30 20:34 41.26222 2.11414 35122 ft 450 kts 176°
2026-04-30 20:35 41.16909 2.13097 35124 ft 450 kts 176°
2026-04-30 20:35 41.07589 2.14697 35119 ft 449 kts 176°
2026-04-30 20:36 41.01394 2.15719 35120 ft 448 kts 177°
2026-04-30 20:37 40.92106 2.17253 35119 ft 449 kts 177°
2026-04-30 20:37 40.85912 2.18280 35113 ft 448 kts 177°
2026-04-30 20:38 40.79746 2.19300 35111 ft 446 kts 177°
2026-04-30 20:38 40.73580 2.20318 35114 ft 447 kts 176°
2026-04-30 20:39 40.64323 2.21845 35113 ft 447 kts 176°
2026-04-30 20:40 40.55068 2.23370 35112 ft 447 kts 176°
2026-04-30 20:40 40.48901 2.24383 35109 ft 447 kts 177°
2026-04-30 20:41 40.39650 2.25986 35100 ft 448 kts 174°
2026-04-30 20:41 40.33527 2.27571 35101 ft 449 kts 172°
2026-04-30 20:42 40.27413 2.29254 35096 ft 449 kts 173°
2026-04-30 20:43 40.18191 2.31679 35088 ft 451 kts 173°
2026-04-30 20:43 40.12033 2.33251 35092 ft 451 kts 174°
2026-04-30 20:44 40.02796 2.35606 35090 ft 451 kts 174°
2026-04-30 20:45 39.90473 2.38768 35081 ft 452 kts 174°
2026-04-30 20:45 39.84305 2.40338 35083 ft 452 kts 174°
2026-04-30 20:46 39.75066 2.42569 35072 ft 440 kts 184°
2026-04-30 20:46 39.72088 2.42429 35080 ft 420 kts 192°
2026-04-30 20:47 39.66400 2.41464 35080 ft 406 kts 193°
2026-04-30 20:47 39.63608 2.40959 35081 ft 405 kts 193°
2026-04-30 20:48 39.57971 2.39982 34451 ft 410 kts 193°
2026-04-30 20:48 39.55212 2.39295 33946 ft 397 kts 207°
2026-04-30 20:48 39.52818 2.37687 33426 ft 383 kts 218°
2026-04-30 20:48 39.50645 2.35716 32883 ft 379 kts 220°
2026-04-30 20:49 39.48530 2.33698 32357 ft 378 kts 220°
2026-04-30 20:49 39.46421 2.31659 31846 ft 379 kts 220°
2026-04-30 20:49 39.44301 2.29604 31346 ft 382 kts 220°
2026-04-30 20:50 39.39975 2.25476 30375 ft 390 kts 219°
2026-04-30 20:50 39.37762 2.23409 29868 ft 395 kts 218°
2026-04-30 20:50 39.35521 2.21338 29304 ft 398 kts 218°
2026-04-30 20:50 39.33262 2.19258 28759 ft 400 kts 218°
2026-04-30 20:51 39.30993 2.17171 28203 ft 401 kts 218°
2026-04-30 20:51 39.26432 2.12973 27175 ft 404 kts 217°
2026-04-30 20:51 39.24143 2.10865 26669 ft 405 kts 217°
2026-04-30 20:52 39.21846 2.08746 26178 ft 407 kts 217°
2026-04-30 20:52 39.19536 2.06617 25690 ft 409 kts 217°
2026-04-30 20:52 39.14890 2.02353 24737 ft 412 kts 217°
2026-04-30 20:53 39.12553 2.00209 24273 ft 413 kts 217°
2026-04-30 20:53 39.10211 1.98058 23815 ft 414 kts 217°
2026-04-30 20:53 39.07858 1.95895 23302 ft 415 kts 217°
2026-04-30 20:54 39.03144 1.91567 22235 ft 418 kts 217°
2026-04-30 20:54 39.00771 1.89388 21736 ft 421 kts 217°
2026-04-30 20:54 38.98456 1.87084 21213 ft 421 kts 226°
2026-04-30 20:55 38.94954 1.81040 20226 ft 424 kts 237°
2026-04-30 20:55 38.93344 1.77853 19740 ft 426 kts 237°
2026-04-30 20:55 38.91736 1.74648 19261 ft 427 kts 237°
2026-04-30 20:56 38.88479 1.68236 18335 ft 431 kts 237°
2026-04-30 20:56 38.86825 1.65048 17782 ft 424 kts 237°
2026-04-30 20:56 38.83754 1.58850 16714 ft 400 kts 247°
2026-04-30 20:57 38.82844 1.55556 15823 ft 387 kts 253°
2026-04-30 20:57 38.82127 1.52271 14852 ft 378 kts 255°
2026-04-30 20:57 38.81461 1.49048 13903 ft 370 kts 255°
2026-04-30 20:58 38.80135 1.42809 11858 ft 355 kts 249°
2026-04-30 20:58 38.79128 1.39949 10894 ft 349 kts 243°
2026-04-30 20:58 38.77990 1.37220 9934 ft 344 kts 242°
2026-04-30 20:58 38.76840 1.34551 8908 ft 340 kts 242°
2026-04-30 20:59 38.74569 1.29298 7018 ft 333 kts 242°
2026-04-30 20:59 38.73474 1.26736 6696 ft 326 kts 243°
2026-04-30 21:00 38.71351 1.21731 6199 ft 302 kts 243°
2026-04-30 21:00 38.69492 1.17305 5700 ft 270 kts 243°
2026-04-30 21:01 38.67759 1.13130 5222 ft 264 kts 243°
2026-04-30 21:01 38.66887 1.11025 4983 ft 264 kts 243°
2026-04-30 21:01 38.65397 1.06766 4503 ft 257 kts 257°
2026-04-30 21:02 38.65135 1.04550 4260 ft 249 kts 270°
2026-04-30 21:02 38.65317 1.02401 3998 ft 240 kts 296°
2026-04-30 21:02 38.66355 1.00847 3773 ft 228 kts 327°
2026-04-30 21:02 38.67667 0.99735 3520 ft 225 kts 329°
2026-04-30 21:03 38.68981 0.98676 3261 ft 222 kts 336°
2026-04-30 21:03 38.70445 0.98280 3021 ft 215 kts
2026-04-30 21:03 38.71790 0.98968 2775 ft 213 kts 50°
2026-04-30 21:03 38.72472 1.00636 2649 ft 211 kts 69°
2026-04-30 21:04 38.73020 1.02382 2665 ft 213 kts 66°
2026-04-30 21:04 38.73609 1.04124 2667 ft 214 kts 66°
2026-04-30 21:04 38.74877 1.07558 2653 ft 215 kts 62°
2026-04-30 21:05 38.75576 1.09255 2657 ft 215 kts 61°
2026-04-30 21:05 38.76289 1.10940 2659 ft 215 kts 61°
2026-04-30 21:05 38.77007 1.12627 2653 ft 215 kts 61°
2026-04-30 21:05 38.77698 1.14251 2650 ft 198 kts 61°
2026-04-30 21:06 38.78329 1.15738 2630 ft 183 kts 62°
2026-04-30 21:06 38.78929 1.17154 2627 ft 180 kts 62°
2026-04-30 21:06 38.79516 1.18573 2663 ft 180 kts 62°
2026-04-30 21:06 38.80106 1.19991 2644 ft 182 kts 62°
2026-04-30 21:07 38.80512 1.20963 2559 ft 182 kts 62°
2026-04-30 21:07 38.81093 1.22355 2386 ft 172 kts 62°
2026-04-30 21:07 38.81632 1.23659 2171 ft 162 kts 62°
2026-04-30 21:07 38.82154 1.24919 1902 ft 158 kts 62°
2026-04-30 21:08 38.82669 1.26159 1680 ft 157 kts 62°
2026-04-30 21:08 38.83181 1.27397 1465 ft 157 kts 62°
2026-04-30 21:08 38.83675 1.28584 1310 ft 147 kts 62°
2026-04-30 21:08 38.84149 1.29733 1087 ft 144 kts 62°
2026-04-30 21:09 38.84615 1.30863 873 ft 143 kts 63°
2026-04-30 21:09 38.85079 1.31991 656 ft 144 kts 63°
2026-04-30 21:09 38.85543 1.33124 438 ft 143 kts 63°
2026-04-30 21:09 38.86012 1.34266 283 ft 147 kts 62°
2026-04-30 21:10 38.86506 1.35432 138 ft 147 kts 63°
2026-04-30 21:10 38.86965 1.36542 11 ft 137 kts 63°
2026-04-30 21:10 38.87332 1.37426 10 ft 68 kts 62°
2026-04-30 21:10 38.87476 1.37746 10 ft 26 kts 49°
2026-04-30 21:11 38.87610 1.37879 12 ft 24 kts 32°
2026-04-30 21:11 38.87693 1.37891 10 ft 11 kts 305°
2026-04-30 21:11 38.87678 1.37812 10 ft 10 kts 240°
2026-04-30 21:11 38.87645 1.37733 10 ft 11 kts 242°
2026-04-30 21:12 38.87609 1.37646 10 ft 11 kts 240°
2026-04-30 21:12 38.87568 1.37553 9 ft 12 kts 241°
2026-04-30 21:12 38.87526 1.37452 9 ft 13 kts 243°
2026-04-30 21:12 38.87483 1.37345 9 ft 12 kts 242°
2026-04-30 21:13 38.87470 1.37312 9 ft 3 kts 242°
2026-04-30 21:13 38.87457 1.37281 9 ft 5 kts 242°
2026-04-30 21:13 38.87436 1.37231 9 ft 10 kts 241°
2026-04-30 21:13 38.87415 1.37164 9 ft 6 kts 279°
2026-04-30 21:14 38.87443 1.37128 9 ft 6 kts 329°
2026-04-30 21:14 38.87476 1.37104 9 ft 5 kts 333°
2026-04-30 21:14 38.87487 1.37097 9 ft 0 kts 333°